Wind_Speed
27 26 25 22 19 19 21 26 26 17 11 15 18 20 20 17 15 12 10 9 6 7 12 14 14 15 18 23 30 34 33 31 30 28 26 25 24 24 23 21 20 21 21 22 22 22 21 21 20 20 20 20 20 19 18 17 16 15 14 14 13 12 11
29 29 27 23 20 21 18 17 18 18 17 15 15 16 17 18 18 16 12 10 8 5 7 13 16 14 16 19 23 27 30 30 30 28 26 24 23 23 23 21 21 22 21 21 21 22 22 22 22 22 22 22 22 21 20 19 18 17 16 15 14 13 13
27 27 27 27 26 24 20 15 14 18 20 19 18 15 13 14 16 17 15 11 9 5 2 9 18 18 16 17 19 22 23 25 29 29 28 27 26 26 25 24 23 23 22 21 20 20 22 23 23 23 23 22 22 22 21 20 19 18 17 16 15 14 13
23 22 26 29 28 26 23 19 17 18 18 17 19 19 16 14 11 13 15 14 11 8 4 4 15 21 19 18 19 20 21 22 25 28 29 29 28 28 27 27 26 25 23 22 21 20 20 21 22 22 21 20 21 21 20 20 20 19 19 18 17 16 15
23 21 25 28 26 25 24 21 18 17 17 16 18 20 20 18 13 11 13 13 12 11 7 3 9 16 19 19 20 22 23 24 25 27 29 28 26 24 23 25 26 26 25 23 22 20 19 20 20 20 19 18 17 18 18 19 19 19 20 19 19 18 17
26 24 26 30 30 27 26 24 19 16 15 15 17 17 17 19 18 14 12 11 11 11 8 6 7 10 14 19 21 23 26 26 26 27 28 28 26 22 21 23 24 25 26 25 23 22 21 20 20 20 19 17 14 13 14 15 17 18 19 20 20 19 18
28 26 26 30 31 30 28 25 20 18 15 14 16 14 9 13 16 16 14 11 10 10 9 8 10 10 12 15 18 21 23 23 23 24 25 26 25 24 25 25 24 24 26 27 25 24 24 23 22 22 21 18 15 14 13 14 15 17 19 20 20 19 18
27 27 25 25 29 31 30 27 25 23 19 16 18 15 8 8 10 12 16 15 11 11 11 10 11 13 13 15 17 18 19 18 19 21 24 25 24 24 26 27 27 26 27 28 27 25 24 23 22 22 22 20 19 18 16 15 16 17 19 21 21 20 20
26 26 23 21 26 33 34 33 31 28 23 21 21 18 14 12 10 11 15 15 13 12 12 12 12 13 14 16 16 16 16 17 18 21 24 25 26 28 28 28 29 29 28 29 28 26 25 24 23 23 23 22 22 21 18 17 17 18 19 20 20 19 20
27 26 24 23 26 34 38 38 36 32 27 26 25 22 19 15 12 13 14 14 12 12 14 16 15 14 14 15 15 14 14 16 19 21 22 24 27 30 30 30 30 31 31 32 30 28 27 27 26 26 25 24 24 24 22 20 18 18 20 20 19 19 19
31 29 28 27 30 36 39 38 37 35 30 28 28 26 22 18 14 14 16 16 13 12 15 18 18 17 16 15 14 13 13 15 19 21 20 21 26 30 30 29 29 30 32 33 33 32 29 29 28 28 27 28 27 26 26 25 22 20 21 21 19 19 20
34 32 30 31 32 37 40 38 37 37 32 28 29 28 24 21 19 17 17 18 15 14 17 20 20 20 18 15 13 12 14 17 19 20 19 20 24 27 28 27 27 28 31 32 33 33 32 31 30 30 30 30 31 30 29 29 26 22 20 19 19 19 18
33 34 35 36 35 36 39 38 36 36 34 30 30 31 27 24 23 20 19 20 20 19 21 22 23 22 20 18 15 13 13 13 13 13 15 18 20 23 25 26 25 25 27 30 32 33 34 34 33 32 31 30 32 33 31 31 29 25 21 21 22 20 17
33 35 37 37 36 35 36 38 37 35 35 35 34 33 31 28 25 23 23 23 25 24 22 21 23 24 23 21 19 17 15 11 8 7 9 12 14 15 17 20 21 22 24 27 30 33 33 34 35 33 29 29 32 32 30 30 30 28 24 23 25 22 18
36 37 36 34 35 36 35 36 38 35 35 37 37 35 34 32 28 26 26 27 28 28 25 22 21 21 22 20 19 19 18 15 12 9 9 10 10 10 11 12 15 19 22 24 28 32 33 33 34 33 29 29 31 29 30 31 28 25 24 24 25 24 20
38 39 39 34 33 35 34 32 35 37 36 36 36 35 34 34 31 28 29 32 32 30 28 26 23 22 22 21 19 18 18 18 16 12 11 11 11 12 12 12 13 15 18 22 25 28 31 31 31 32 31 30 29 29 31 31 26 23 24 25 25 24 22
39 42 43 38 35 36 35 31 32 37 39 37 35 33 33 34 33 31 32 34 34 33 31 29 27 25 23 22 20 18 18 18 16 14 12 11 11 12 12 12 11 12 14 19 22 24 27 27 28 31 31 29 28 28 29 28 27 26 26 27 28 26 24
37 43 45 42 39 40 40 36 36 40 43 40 36 33 33 34 35 34 35 36 35 35 32 30 29 28 25 23 22 20 18 18 18 16 15 14 14 15 15 15 15 14 14 17 20 22 23 23 23 25 26 25 24 24 24 24 26 26 26 27 28 27 26
32 40 45 45 43 42 41 39 41 43 43 41 38 35 34 34 34 34 34 36 36 35 34 32 31 29 27 26 26 25 22 20 20 20 20 19 18 16 16 17 18 19 20 20 20 20 20 19 18 19 20 20 20 20 19 18 19 21 22 24 25 26 26
27 34 42 45 44 42 38 38 41 42 39 38 38 37 36 35 34 32 31 32 34 33 32 32 32 32 31 29 29 29 27 24 22 23 25 24 22 19 18 18 20 22 23 21 19 19 19 19 20 20 19 18 16 15 14 14 16 17 19 20 21 23 25
24 28 35 41 44 42 37 36 40 41 38 37 39 39 38 37 37 33 29 30 31 29 30 31 33 33 31 29 29 29 28 26 23 23 26 27 26 24 22 21 22 23 22 21 20 20 21 21 22 22 21 19 17 17 16 16 17 18 19 21 22 24 26
22 25 29 36 42 44 40 37 38 39 38 39 41 42 41 39 38 35 31 29 28 26 28 30 31 31 28 26 26 27 28 27 26 26 28 27 27 26 23 23 24 24 24 25 25 24 23 22 22 22 22 22 21 21 20 19 19 19 20 21 21 22 23
20 23 26 30 36 41 42 41 41 42 41 40 41 44 45 42 39 36 33 30 28 27 28 28 27 28 28 25 24 25 25 26 27 29 29 28 28 27 24 23 25 24 23 24 26 26 24 21 21 21 21 22 21 21 21 22 21 21 20 20 20 20 20
18 21 24 26 30 35 39 42 44 45 45 43 41 43 46 45 42 39 35 33 28 24 27 31 31 30 28 24 22 22 22 23 22 23 24 25 26 27 26 24 23 21 20 20 21 23 22 21 21 22 21 21 20 20 21 22 22 22 22 21 20 19 19
16 19 22 25 27 31 35 39 41 42 44 44 43 43 44 45 45 41 39 37 31 21 17 21 27 29 28 25 23 21 22 24 22 19 20 21 19 18 20 23 22 19 17 16 16 17 19 21 22 23 22 21 19 19 20 22 23 23 22 21 22 21 22
14 17 21 23 25 28 31 33 34 36 37 39 40 41 42 44 44 42 39 39 38 35 29 24 22 25 27 27 26 24 23 25 25 23 23 23 19 16 16 18 19 18 17 17 17 16 17 19 21 22 23 22 22 21 22 23 25 24 22 23 25 24 24
13 15 18 20 21 24 25 25 25 28 31 33 35 36 37 39 40 39 38 36 36 38 39 33 28 27 28 29 30 30 28 25 24 23 24 23 21 20 19 18 17 18 18 18 18 17 17 19 21 22 23 24 24 24 24 24 25 25 24 24 25 25 24
12 13 15 16 18 20 21 20 20 23 26 27 29 31 33 34 36 37 38 37 35 34 35 34 32 31 31 30 29 29 27 25 23 23 24 22 20 19 19 19 19 19 19 19 18 18 19 20 21 23 24 25 26 26 26 26 26 26 27 27 27 26 26
12 13 14 14 15 17 18 18 18 20 21 22 22 23 24 26 29 31 32 32 32 31 30 31 31 30 28 25 23 23 24 24 23 23 24 24 23 20 19 19 19 19 20 20 20 21 21 23 24 25 26 27 28 29 29 29 29 29 29 30 30 30 29
10 11 13 14 15 16 16 17 17 18 19 19 19 18 19 19 21 22 23 22 22 23 23 23 24 25 25 24 23 22 23 23 24 24 24 25 25 25 24 23 23 22 21 22 22 23 23 24 26 27 28 29 30 30 31 32 32 31 31 32 32 32 31
7 8 10 13 16 17 16 16 16 17 17 17 17 17 17 16 17 18 18 17 17 18 19 20 20 21 22 23 23 23 22 22 22 23 24 24 25 26 27 27 28 27 27 26 25 25 25 25 26 28 29 30 31 31 32 33 34 34 34 34 34 34 34
6 5 6 9 13 15 16 15 15 16 16 16 16 16 16 15 15 15 15 16 16 16 17 18 19 19 20 21 22 22 22 22 22 22 23 23 24 25 25 26 27 28 29 29 29 29 29 29 29 29 30 31 31 32 33 34 35 36 36 37 37 37 37
6 4 6 8 9 12 13 14 14 14 14 14 14 15 16 16 16 16 15 15 15 16 16 16 17 18 18 19 19 20 20 20 21 21 22 23 23 24 25 25 25 26 27 28 29 30 31 31 31 31 31 32 32 33 34 35 36 37 37 38 39 39 40
7 6 7 8 10 11 12 12 12 12 13 13 14 14 15 15 16 16 16 16 16 16 16 16 17 17 17 17 17 17 17 18 18 19 20 21 23 24 24 25 26 26 27 27 28 29 30 31 32 32 32 32 33 34 35 36 37 38 39 40 41 41 42
9 9 9 10 11 12 12 11 11 11 12 13 13 14 14 14 14 14 15 15 15 16 16 16 16 16 17 17 17 16 16 16 16 17 18 19 20 21 22 24 25 26 27 28 28 29 30 31 32 32 33 33 33 34 34 35 36 38 40 41 42 43 44
11 11 11 11 10 10 11 10 10 11 12 12 12 13 13 12 12 11 11 12 12 12 12 12 12 12 13 14 14 14 14 15 15 16 16 17 18 19 20 21 23 24 25 26 27 28 29 30 31 32 33 34 35 35 35 35 36 37 38 40 42 43 45
12 12 11 11 10 10 10 10 11 12 12 12 12 11 11 11 10 9 9 9 9 9 9 9 9 10 11 12 13 13 14 14 15 16 16 17 18 18 19 20 21 23 24 25 26 26 27 28 29 30 32 33 34 35 36 36 37 38 38 39 41 42 43
Wind_Direction
175 185 204 221 227 223 214 207 210 222 224 210 216 225 227 229 231 234 243 253 255 217 203 200 195 194 195 196 201 204 205 207 208 206 205 205 204 203 203 200 198 203 208 211 212 212 213 216 219 220 218 216 214 211 208 204 202 206 208 206 201 200 200
182 189 197 204 218 225 218 209 216 232 239 229 225 228 234 241 243 246 251 254 257 251 217 204 195 187 186 189 196 201 205 210 211 209 208 209 210 210 209 205 201 203 206 207 209 209 210 213 219 222 221 218 217 214 212 209 205 207 212 213 209 206 205
180 189 196 200 209 215 210 204 211 223 233 237 237 238 242 245 245 245 248 252 243 237 251 209 199 190 182 182 190 196 201 206 207 207 206 208 212 216 216 214 210 208 207 207 207 205 205 209 215 221 222 219 218 217 216 213 210 209 211 216 217 214 212
175 181 192 199 209 213 208 202 202 211 223 232 235 237 239 241 243 238 239 248 244 236 280 224 192 191 186 182 186 189 193 196 197 200 204 207 213 217 218 218 217 213 209 208 208 205 203 205 211 219 221 219 218 219 219 216 214 211 210 214 219 220 219
173 173 183 192 201 205 202 196 194 203 215 224 229 232 236 237 236 231 229 242 248 245 261 248 187 192 191 186 185 185 187 187 188 194 198 203 209 211 214 218 219 217 213 209 209 211 210 210 214 221 225 222 218 218 220 219 216 212 209 212 218 223 224
175 170 179 190 194 191 188 185 185 196 207 221 227 230 239 243 242 239 231 236 244 241 244 231 200 195 193 193 191 189 189 189 191 195 196 199 201 198 200 207 212 215 215 213 212 215 217 217 218 223 227 228 223 218 220 220 219 216 212 213 217 222 226
183 174 180 194 196 191 188 185 185 193 202 214 216 214 237 250 244 240 234 236 238 230 227 222 213 207 201 199 196 193 195 198 202 204 204 206 204 199 200 204 204 206 210 214 215 217 219 220 220 222 225 227 224 218 219 221 218 215 214 214 215 219 224
190 180 179 192 197 195 194 192 191 193 195 196 194 195 215 235 230 227 226 230 233 223 215 214 219 218 205 198 195 193 194 201 207 208 209 212 211 208 207 206 204 201 203 210 212 212 215 216 216 217 219 223 224 221 219 220 217 212 211 213 213 214 218
186 180 175 184 195 195 196 198 196 195 194 185 179 187 205 211 212 214 213 217 223 220 213 208 213 217 208 202 203 202 201 208 215 216 215 215 213 213 212 212 212 206 202 208 211 209 209 210 210 211 215 220 223 222 222 223 222 218 214 213 212 212 215
183 180 176 180 191 195 198 201 197 194 195 188 181 190 201 202 212 220 208 200 204 209 210 209 210 214 215 213 214 218 219 217 217 218 221 222 219 216 215 217 220 215 208 207 209 210 211 211 210 210 214 220 224 223 223 225 225 221 217 215 212 211 212
185 186 182 183 190 195 199 202 198 194 195 193 190 193 197 197 211 225 215 198 190 192 201 209 214 218 220 218 216 219 220 218 220 226 231 231 228 225 221 217 222 226 221 215 211 210 213 217 218 216 215 219 223 222 222 225 227 224 219 216 215 214 212
187 189 189 186 189 194 197 200 202 199 194 191 192 193 195 199 208 222 223 209 198 194 196 202 212 216 218 218 213 212 216 221 230 238 241 235 228 228 227 223 226 233 232 228 223 218 217 219 222 222 219 219 221 222 222 223 225 225 220 216 221 226 222
192 193 197 194 190 192 196 199 204 203 194 190 193 195 197 201 208 220 227 218 210 204 199 200 206 210 213 213 208 206 210 219 231 236 233 228 226 230 233 233 235 236 232 230 228 223 220 219 219 221 223 222 223 225 224 222 222 222 217 212 216 224 228
201 199 203 201 194 194 197 200 204 204 197 196 198 199 201 204 208 217 222 220 215 210 203 202 206 209 213 214 211 211 213 222 237 232 218 220 228 234 236 236 238 237 235 234 229 223 222 222 221 221 222 226 230 230 228 225 221 218 216 216 216 217 223
208 207 211 206 195 195 199 200 203 203 199 199 202 204 206 207 208 213 218 220 221 217 212 211 210 211 215 216 214 215 218 226 237 233 219 224 237 244 242 247 252 247 241 237 231 224 223 224 224 221 220 226 232 233 233 232 227 221 219 221 219 215 219
211 213 217 212 198 196 199 200 202 202 199 199 201 204 207 208 208 212 217 221 226 225 221 219 217 217 219 220 220 220 220 225 232 231 226 229 239 246 248 257 268 261 246 238 233 227 224 222 221 218 218 223 227 229 234 235 232 229 227 224 221 220 225
214 214 217 215 204 199 201 204 205 202 199 199 201 202 204 207 209 212 216 222 229 231 229 226 224 223 225 227 226 226 224 223 223 225 226 224 230 239 242 243 250 254 247 240 238 234 228 224 220 217 217 222 227 231 235 235 232 233 232 228 226 228 232
217 216 216 216 210 202 203 207 206 201 198 199 201 202 204 207 210 214 217 221 228 233 234 231 228 228 232 237 237 237 237 231 227 233 238 238 239 243 243 242 242 244 241 235 233 234 234 233 229 222 221 225 231 235 237 237 238 240 239 236 232 232 233
216 216 217 218 214 209 207 206 202 198 197 198 200 201 203 207 211 216 218 219 223 230 234 235 234 233 235 240 242 244 247 246 243 248 252 254 253 251 248 244 239 237 234 229 225 225 226 229 226 222 223 226 229 232 235 239 243 246 247 245 242 238 236
217 217 219 221 219 215 212 207 203 200 198 198 201 203 204 206 209 215 219 218 218 225 232 236 237 236 235 238 240 243 246 248 248 251 255 259 259 255 250 243 234 230 227 219 214 214 215 218 219 220 224 226 225 225 229 235 241 246 248 248 245 242 241
221 219 221 222 221 218 214 208 205 205 203 201 203 206 207 208 209 212 215 215 216 224 232 233 233 233 234 235 237 240 244 245 245 246 250 254 254 251 248 241 231 229 229 223 219 220 220 220 223 227 232 233 232 234 236 237 240 244 248 249 249 248 250
224 223 223 222 222 221 218 211 209 211 210 207 207 210 211 211 212 215 217 215 215 223 231 234 234 233 231 231 235 238 240 242 247 249 246 244 242 242 241 236 231 230 232 233 231 227 222 219 221 228 235 239 240 242 243 243 242 242 244 245 247 248 249
226 224 223 222 222 223 221 216 215 218 217 215 215 216 215 213 213 216 219 219 222 230 237 239 237 230 226 230 236 238 239 243 247 248 245 243 241 238 235 235 234 230 228 229 226 221 220 221 222 224 228 233 236 239 242 244 244 244 244 243 243 243 244
230 227 224 221 220 220 218 216 218 221 222 222 222 220 217 215 214 216 218 222 228 235 239 240 236 229 226 234 242 240 236 236 234 229 230 235 236 230 225 225 226 221 214 212 212 213 217 224 228 229 231 232 235 239 242 245 246 247 247 247 246 244 244
232 230 227 222 220 219 216 214 216 220 223 224 224 223 220 219 220 223 225 226 225 225 234 242 237 230 230 238 245 244 236 237 239 234 227 223 217 210 209 209 208 206 208 215 222 223 222 224 228 232 235 236 235 239 244 247 248 247 248 248 247 244 244
232 230 229 225 221 220 218 216 218 221 222 224 224 224 223 223 227 233 236 234 232 236 252 265 258 243 240 243 247 249 244 246 255 256 247 239 231 224 221 214 209 213 229 244 251 243 228 223 228 232 236 237 236 237 241 244 245 246 244 244 245 244 243
232 231 229 226 221 218 217 218 220 221 222 224 223 223 223 225 230 237 241 241 241 243 251 259 258 253 252 252 255 258 256 253 254 252 248 248 244 240 241 241 237 240 249 256 258 251 237 231 232 236 239 242 242 242 243 245 247 249 248 247 247 248 248
224 226 227 224 218 213 213 217 220 217 216 219 221 221 223 226 231 237 241 245 247 246 246 247 247 249 253 255 257 256 251 246 244 241 242 246 246 243 244 249 253 254 256 256 254 250 247 243 241 241 243 246 248 250 250 250 250 252 252 252 253 255 254
217 214 215 212 205 203 205 209 214 214 213 213 215 217 221 224 229 233 235 235 237 238 238 239 241 243 246 246 244 241 237 236 238 239 241 243 244 243 242 244 247 249 250 251 248 245 244 243 244 245 245 246 249 251 253 255 255 253 252 252 253 254 255
208 201 202 200 196 195 197 199 203 208 211 212 211 215 221 225 229 231 229 225 225 229 232 235 237 236 235 235 236 236 236 235 237 240 243 244 245 246 246 246 247 247 246 247 248 246 243 241 241 243 244 245 246 248 250 253 255 255 254 252 251 251 252
188 177 184 191 191 190 192 198 202 205 209 212 214 217 220 223 225 229 229 227 225 226 229 232 232 230 228 231 234 235 236 237 238 240 244 247 249 250 250 249 249 249 248 247 246 246 245 242 241 241 242 243 244 244 245 248 250 252 253 252 251 251 251
189 168 161 171 179 181 183 190 197 201 203 207 211 214 214 213 214 216 219 221 223 225 228 231 233 233 233 233 235 236 238 240 241 242 244 247 250 252 253 253 252 251 250 249 249 249 248 247 245 243 243 243 243 243 244 244 246 247 249 250 250 250 250
188 186 172 166 167 170 175 181 185 189 191 193 197 203 207 209 212 215 218 221 223 224 227 229 232 235 237 239 240 241 241 242 243 244 244 244 247 250 253 254 255 255 255 254 254 254 254 254 254 252 251 250 248 247 246 246 246 247 248 249 250 250 250
166 170 179 180 176 171 173 180 183 184 187 190 194 199 203 208 213 217 219 221 222 223 224 224 226 229 232 235 238 239 240 241 241 242 242 244 246 248 251 253 255 256 257 257 256 256 257 258 259 260 260 258 256 253 251 250 249 250 250 250 251 251 252
157 161 174 183 183 179 177 179 183 185 188 192 197 202 206 209 215 220 222 223 224 227 228 229 229 230 231 232 233 235 237 238 237 238 240 242 244 246 249 251 252 253 254 256 256 256 257 258 259 261 262 262 261 259 257 254 253 252 252 252 252 253 253
157 168 175 176 178 180 177 176 179 186 191 195 198 203 205 206 211 218 223 225 226 230 233 235 236 237 238 237 236 236 236 237 238 238 238 239 241 243 245 247 249 250 252 253 254 255 256 257 258 259 261 262 262 263 262 260 259 257 255 255 254 254 255
165 174 173 168 170 172 173 176 179 182 185 189 193 196 196 196 197 202 209 215 218 221 227 230 232 236 240 242 243 244 243 243 243 244 243 243 244 244 245 247 249 250 251 252 253 255 256 257 258 260 261 262 263 264 264 264 264 263 261 260 258 257 256
Height
5847 5849 5850 5852 5854 5856 5857 5860 5864 5864 5864 5865 5866 5867 5868 5870 5871 5872 5872 5873 5874 5874 5875 5877 5878 5879 5880 5882 5885 5888 5891 5894 5896 5899 5901 5903 5906 5908 5909 5911 5913 5914 5916 5917 5919 5922 5924 5926 5926 5927 5928 5930 5931 5933 5934 5936 5938 5939 5940 5941 5942 5943 5944
5846 5847 5849 5852 5853 5854 5857 5860 5862 5862 5862 5863 5864 5866 5868 5869 5870 5871 5872 5873 5874 5874 5875 5876 5877 5879 5880 5882 5884 5887 5890 5892 5895 5898 5901 5903 5905 5906 5907 5909 5911 5912 5914 5915 5917 5919 5922 5923 5924 5925 5926 5928 5929 5931 5932 5934 5936 5937 5939 5940 5941 5942 5943
5844 5845 5848 5850 5851 5853 5856 5858 5859 5860 5861 5863 5864 5866 5867 5868 5869 5870 5871 5873 5874 5874 5874 5875 5876 5878 5879 5881 5883 5885 5888 5890 5893 5896 5898 5901 5902 5903 5905 5907 5908 5910 5912 5914 5915 5917 5919 5921 5922 5922 5924 5926 5927 5929 5931 5933 5934 5936 5937 5939 5940 5941 5942
5842 5844 5846 5849 5851 5853 5856 5857 5857 5858 5860 5861 5863 5865 5866 5867 5868 5869 5870 5872 5873 5874 5874 5874 5875 5876 5878 5880 5882 5884 5886 5888 5890 5893 5895 5898 5899 5900 5903 5905 5906 5909 5911 5912 5914 5915 5918 5919 5920 5921 5922 5924 5926 5928 5929 5931 5933 5934 5936 5937 5938 5939 5940
5841 5841 5844 5847 5849 5852 5854 5855 5856 5857 5858 5859 5861 5863 5864 5865 5867 5868 5870 5871 5872 5873 5874 5874 5875 5876 5878 5879 5880 5882 5884 5885 5888 5890 5892 5894 5897 5899 5902 5903 5905 5907 5910 5912 5913 5914 5916 5918 5920 5920 5921 5923 5925 5927 5928 5930 5931 5933 5934 5935 5936 5937 5938
5839 5839 5842 5844 5846 5849 5851 5853 5855 5856 5857 5858 5859 5862 5863 5864 5866 5867 5869 5870 5871 5873 5874 5874 5875 5876 5878 5879 5879 5881 5882 5884 5886 5889 5890 5892 5894 5897 5899 5900 5902 5905 5908 5910 5912 5913 5915 5917 5919 5920 5921 5922 5924 5926 5927 5928 5929 5931 5932 5933 5934 5935 5936
5838 5839 5841 5842 5844 5847 5849 5852 5854 5854 5855 5856 5859 5861 5863 5863 5864 5866 5868 5870 5871 5872 5874 5875 5875 5876 5877 5878 5880 5881 5883 5885 5887 5889 5891 5892 5893 5895 5896 5897 5900 5902 5905 5907 5909 5911 5913 5915 5917 5919 5920 5921 5923 5924 5925 5926 5927 5928 5930 5931 5932 5933 5934
5837 5838 5839 5842 5844 5846 5848 5850 5850 5849 5851 5853 5857 5859 5860 5861 5863 5865 5867 5869 5870 5872 5874 5875 5875 5876 5877 5878 5880 5882 5884 5886 5887 5888 5890 5891 5893 5895 5895 5895 5897 5898 5901 5904 5906 5907 5910 5912 5914 5916 5918 5919 5920 5921 5923 5924 5925 5926 5927 5928 5929 5930 5931
5835 5837 5838 5840 5842 5844 5845 5845 5844 5846 5848 5851 5854 5856 5857 5859 5862 5863 5866 5869 5870 5871 5873 5874 5875 5876 5877 5878 5880 5882 5884 5885 5885 5886 5887 5889 5890 5891 5892 5893 5894 5894 5898 5902 5904 5904 5907 5909 5912 5913 5915 5916 5917 5919 5921 5922 5923 5923 5924 5926 5927 5927 5928
5833 5834 5835 5836 5837 5838 5838 5838 5840 5844 5846 5849 5851 5852 5854 5858 5860 5862 5865 5868 5869 5870 5871 5873 5874 5876 5877 5878 5879 5881 5883 5883 5883 5884 5886 5887 5888 5888 5889 5890 5892 5893 5895 5898 5901 5902 5904 5906 5908 5910 5912 5913 5914 5916 5918 5920 5921 5921 5922 5923 5924 5925 5925
5829 5830 5831 5832 5833 5834 5834 5836 5840 5843 5845 5848 5850 5850 5852 5855 5857 5860 5863 5866 5868 5869 5870 5872 5873 5875 5877 5877 5878 5880 5881 5882 5882 5883 5884 5886 5887 5887 5888 5889 5891 5892 5893 5895 5896 5898 5900 5903 5905 5907 5908 5910 5910 5912 5914 5915 5917 5918 5919 5920 5921 5922 5923
5825 5827 5828 5828 5829 5831 5833 5837 5841 5843 5845 5847 5848 5849 5851 5853 5855 5858 5861 5864 5866 5867 5868 5869 5871 5873 5875 5876 5877 5879 5880 5880 5881 5881 5883 5884 5885 5886 5888 5889 5890 5891 5891 5892 5893 5895 5898 5900 5902 5903 5904 5905 5906 5906 5907 5909 5912 5914 5916 5918 5920 5921 5922
5823 5823 5824 5824 5826 5829 5833 5836 5839 5842 5844 5846 5846 5848 5850 5851 5853 5856 5858 5861 5863 5865 5866 5867 5869 5871 5873 5874 5875 5877 5879 5879 5879 5880 5881 5882 5883 5885 5887 5889 5889 5889 5889 5889 5891 5894 5897 5898 5898 5900 5901 5902 5903 5904 5905 5907 5910 5912 5914 5916 5917 5919 5922
5820 5820 5820 5821 5824 5828 5831 5834 5837 5840 5842 5844 5845 5846 5848 5850 5852 5854 5856 5858 5861 5863 5864 5865 5867 5870 5871 5873 5875 5876 5877 5878 5878 5879 5880 5881 5883 5884 5886 5888 5888 5888 5888 5888 5890 5892 5894 5896 5897 5899 5901 5902 5903 5905 5906 5906 5909 5911 5913 5913 5914 5916 5919
5817 5818 5819 5820 5822 5826 5828 5831 5834 5837 5840 5842 5843 5845 5847 5848 5850 5852 5854 5856 5858 5861 5863 5864 5866 5869 5871 5873 5874 5875 5876 5877 5877 5878 5880 5881 5882 5883 5884 5886 5886 5886 5886 5887 5888 5890 5892 5893 5895 5897 5900 5901 5903 5905 5904 5904 5907 5910 5911 5912 5913 5914 5915
5815 5816 5817 5819 5821 5824 5826 5829 5832 5835 5838 5840 5841 5843 5845 5847 5849 5851 5853 5854 5856 5858 5861 5863 5865 5867 5869 5871 5872 5873 5874 5875 5876 5877 5878 5879 5880 5881 5882 5883 5884 5884 5884 5885 5886 5888 5889 5890 5892 5894 5896 5898 5900 5901 5901 5902 5905 5908 5909 5910 5911 5911 5911
5813 5813 5815 5818 5820 5822 5824 5828 5831 5833 5836 5838 5839 5841 5843 5845 5846 5848 5850 5852 5854 5856 5859 5861 5863 5865 5866 5868 5870 5871 5872 5873 5874 5874 5875 5877 5879 5879 5880 5882 5882 5883 5883 5884 5885 5886 5887 5887 5888 5891 5893 5895 5896 5897 5899 5900 5902 5904 5905 5906 5907 5908 5909
5810 5811 5813 5816 5818 5818 5820 5825 5828 5830 5833 5835 5837 5839 5841 5842 5843 5845 5847 5850 5852 5853 5856 5858 5860 5862 5863 5865 5867 5869 5870 5872 5872 5872 5873 5874 5876 5877 5878 5880 5881 5882 5882 5883 5883 5884 5885 5887 5888 5890 5892 5893 5894 5895 5896 5898 5899 5900 5902 5903 5904 5905 5907
5808 5809 5811 5812 5814 5816 5818 5821 5824 5826 5829 5832 5834 5836 5838 5840 5841 5842 5844 5847 5849 5850 5852 5854 5857 5860 5861 5862 5864 5866 5868 5870 5872 5872 5871 5872 5874 5876 5877 5877 5878 5880 5880 5879 5881 5882 5884 5886 5888 5890 5891 5891 5892 5893 5893 5894 5896 5897 5898 5899 5901 5902 5903
5806 5807 5807 5808 5811 5815 5816 5818 5821 5824 5828 5831 5832 5834 5836 5837 5839 5840 5842 5844 5846 5847 5849 5851 5853 5856 5858 5859 5860 5862 5864 5866 5869 5870 5870 5870 5871 5872 5874 5875 5876 5878 5877 5877 5878 5880 5882 5884 5886 5888 5888 5888 5889 5890 5891 5893 5894 5894 5895 5896 5897 5898 5899
5803 5804 5805 5806 5809 5812 5813 5816 5819 5822 5826 5829 5831 5832 5834 5835 5837 5838 5839 5840 5842 5844 5846 5847 5847 5850 5854 5857 5858 5859 5860 5862 5864 5865 5866 5868 5868 5868 5870 5873 5875 5876 5877 5877 5878 5879 5881 5882 5883 5884 5884 5885 5886 5887 5889 5891 5892 5893 5893 5894 5895 5896 5896
5801 5802 5803 5804 5806 5808 5811 5814 5817 5820 5823 5827 5829 5831 5832 5833 5835 5836 5837 5838 5839 5841 5843 5843 5844 5848 5852 5855 5856 5857 5858 5859 5860 5860 5861 5864 5865 5864 5866 5869 5871 5873 5875 5876 5877 5878 5879 5880 5880 5881 5881 5882 5883 5884 5886 5888 5889 5891 5892 5892 5893 5894 5894
5798 5799 5800 5802 5803 5805 5808 5812 5815 5817 5820 5823 5826 5828 5830 5831 5832 5833 5835 5837 5838 5839 5839 5840 5843 5846 5850 5852 5853 5855 5856 5857 5856 5856 5857 5860 5862 5863 5864 5866 5867 5869 5870 5872 5874 5875 5877 5878 5878 5878 5879 5879 5880 5882 5884 5885 5886 5887 5889 5890 5891 5891 5892
5795 5796 5797 5799 5801 5802 5805 5808 5811 5814 5816 5819 5822 5824 5826 5829 5830 5831 5834 5836 5838 5838 5837 5837 5840 5843 5845 5848 5850 5852 5854 5854 5853 5853 5855 5857 5858 5859 5861 5863 5864 5866 5867 5868 5870 5873 5875 5876 5876 5877 5877 5878 5878 5880 5881 5882 5883 5884 5886 5887 5888 5889 5890
5793 5793 5795 5796 5798 5800 5803 5805 5808 5810 5813 5816 5818 5821 5824 5826 5828 5829 5832 5835 5836 5836 5834 5834 5836 5839 5842 5844 5846 5849 5851 5851 5850 5851 5853 5855 5855 5856 5858 5860 5862 5863 5864 5866 5868 5870 5872 5873 5874 5875 5875 5876 5877 5878 5879 5879 5880 5881 5883 5884 5885 5886 5887
5790 5791 5792 5794 5796 5798 5801 5803 5805 5807 5810 5812 5815 5818 5821 5823 5824 5826 5829 5831 5832 5831 5831 5832 5836 5838 5839 5842 5844 5846 5849 5849 5849 5849 5850 5852 5854 5855 5856 5858 5860 5862 5864 5865 5867 5868 5870 5871 5872 5873 5873 5874 5875 5876 5876 5877 5877 5878 5880 5882 5882 5883 5884
5787 5789 5790 5792 5794 5796 5799 5802 5804 5805 5807 5810 5812 5815 5818 5820 5822 5823 5823 5825 5827 5829 5831 5833 5835 5837 5838 5840 5842 5844 5846 5848 5849 5848 5848 5850 5852 5854 5855 5856 5858 5861 5862 5864 5865 5866 5867 5868 5870 5870 5871 5872 5872 5873 5874 5874 5875 5875 5877 5878 5879 5879 5880
5785 5786 5788 5790 5792 5795 5798 5800 5801 5802 5804 5807 5810 5812 5814 5817 5819 5820 5820 5821 5823 5826 5829 5832 5834 5835 5837 5839 5840 5842 5844 5846 5847 5847 5848 5848 5850 5851 5853 5854 5856 5858 5859 5860 5862 5863 5864 5865 5867 5868 5868 5869 5869 5870 5870 5871 5872 5872 5873 5874 5875 5876 5876
5783 5784 5786 5788 5791 5793 5796 5798 5799 5801 5802 5805 5807 5810 5812 5814 5816 5817 5818 5819 5821 5824 5827 5829 5831 5833 5835 5836 5838 5839 5841 5842 5844 5845 5845 5846 5847 5849 5851 5853 5854 5854 5855 5857 5858 5859 5861 5862 5863 5864 5865 5866 5866 5866 5867 5867 5868 5868 5869 5870 5871 5871 5872
5782 5783 5784 5786 5788 5791 5793 5795 5797 5799 5801 5804 5806 5808 5809 5811 5814 5815 5816 5817 5819 5821 5824 5826 5829 5831 5833 5834 5836 5837 5838 5840 5841 5842 5842 5844 5845 5846 5848 5850 5851 5852 5853 5854 5855 5856 5857 5858 5859 5860 5861 5862 5862 5863 5863 5864 5864 5864 5865 5866 5866 5867 5867
5781 5781 5782 5784 5786 5789 5791 5793 5795 5798 5800 5802 5804 5806 5807 5809 5811 5813 5814 5816 5818 5820 5822 5824 5826 5829 5831 5832 5833 5835 5836 5837 5838 5839 5840 5840 5841 5842 5844 5846 5847 5848 5849 5850 5851 5852 5853 5854 5855 5856 5857 5858 5858 5859 5859 5860 5860 5860 5860 5861 5862 5863 5863
5781 5781 5782 5784 5785 5787 5789 5791 5794 5796 5798 5800 5802 5804 5806 5808 5810 5811 5813 5815 5816 5818 5820 5822 5824 5826 5828 5829 5830 5832 5834 5835 5835 5836 5837 5838 5838 5839 5840 5841 5842 5843 5844 5846 5847 5848 5849 5849 5851 5851 5852 5853 5854 5854 5855 5855 5856 5856 5856 5856 5857 5857 5858
5782 5782 5783 5784 5785 5787 5788 5790 5792 5794 5796 5798 5800 5802 5804 5806 5808 5810 5812 5813 5815 5817 5818 5820 5821 5822 5824 5825 5827 5828 5830 5831 5832 5833 5834 5835 5835 5836 5836 5837 5838 5838 5839 5841 5842 5842 5843 5844 5845 5846 5847 5847 5848 5849 5850 5850 5851 5851 5851 5851 5851 5852 5853
5782 5782 5783 5784 5785 5787 5788 5790 5792 5793 5795 5797 5799 5801 5803 5805 5806 5808 5810 5811 5813 5814 5816 5817 5818 5820 5821 5822 5823 5824 5825 5827 5828 5829 5830 5831 5832 5832 5833 5834 5834 5835 5835 5836 5837 5837 5838 5838 5839 5839 5840 5841 5842 5843 5844 5845 5845 5845 5845 5845 5846 5846 5847
5781 5782 5783 5783 5785 5786 5788 5790 5791 5793 5795 5796 5798 5800 5801 5803 5805 5806 5808 5809 5811 5812 5813 5814 5815 5817 5818 5819 5820 5821 5822 5823 5824 5825 5826 5827 5828 5829 5829 5830 5831 5831 5831 5832 5832 5833 5833 5834 5834 5834 5834 5834 5835 5836 5837 5838 5839 5839 5839 5840 5840 5841 5841
5781 5781 5782 5783 5784 5786 5788 5790 5791 5793 5794 5796 5798 5799 5801 5802 5803 5805 5806 5807 5809 5810 5811 5812 5813 5814 5815 5816 5817 5818 5819 5820 5821 5822 5823 5824 5825 5825 5826 5826 5826 5826 5827 5827 5828 5828 5828 5829 5829 5829 5829 5829 5829 5830 5830 5831 5832 5832 5833 5833 5834 5835 5835
5781 5782 5782 5784 5785 5786 5788 5789 5791 5792 5794 5796 5797 5799 5800 5801 5802 5804 5805 5806 5807 5808 5809 5810 5811 5812 5812 5813 5814 5815 5816 5818 5818 5819 5820 5821 5822 5822 5823 5823 5823 5823 5823 5823 5824 5824 5824 5825 5825 5825 5824 5824 5825 5825 5825 5825 5825 5825 5826 5826 5826 5827 5828